AirNav   Air Wisconsin Up To $57,000 Bonus
 
 308 users online  

4OR7 Lusardi Field Airport
Salem, Oregon, USA

GOING TO SALEM?


FAA INFORMATION EFFECTIVE 05 DECEMBER 2019

Location

FAA Identifier: 4OR7
Lat/Long: 44-59-07.4320N 122-56-46.3400W
44-59.123867N 122-56.772333W
44.9853978,-122.9462056
(estimated)
Elevation: 205 ft. / 62 m (estimated)
Variation: 19E (1985)
From city: 7 miles NE of SALEM, OR
Time zone: UTC -8 (UTC -7 during Daylight Saving Time)
Zip code: 97305

Airport Operations

Airport use: Private use. Permission required prior to landing
Activation date: 03/1976
Control tower: no
ARTCC: SEATTLE CENTER
FSS: MC MINNVILLE FLIGHT SERVICE STATION
Attendance: UNATNDD
Wind indicator: yes
Segmented circle: no
Lights: FOR RY LIGHTS CALL 503-931-0404.

Airport Communications

WX ASOS at SLE (5 nm SW): 124.55 (503-371-1062)
WX ASOS at MMV (15 nm NW): 135.675 (503-434-9153)
WX ASOS at UAO (17 nm NE): PHONE 503-678-3011

Nearby radio navigation aids

VOR radial/distance  VOR name  Freq  Var
UBGr155/22.1NEWBERG VOR/DME117.4021E
CVOr009/32.7CORVALLIS VOR/DME115.4018E

 
NDB name  Hdg/Dist  Freq  Var  ID
TURNO344/8.326617ESL ... .-..
LEWISBURG017/26.222515ELWG .-.. .-- --.
BANKS158/38.935616EPND .--. -. -..

Airport Services

Fuel available: 80

Runway Information

Runway 17/35

Dimensions: 2200 x 60 ft. / 671 x 18 m
Surface: turf
Runway edge lights: low intensity
RUNWAY 17  RUNWAY 35
Traffic pattern: leftleft
Obstructions: trees, lighted, 600 ft. from runwaypline, lighted, 800 ft. from runway

Airport Ownership and Management from official FAA records

Ownership: Privately-owned
Owner: ROBERT LUSARDI
5605 IBEX ST NE
SALEM, OR 97305
Phone 503-399-7123
Manager: ROBERT LUSARDI
5605 IBEX ST NE
SALEM, OR 97305
Phone 503-319-2370

Airport Operational Statistics

Aircraft based on the field: 8
Single engine airplanes: 8
    

Additional Remarks

RY 35 PREFERRED CALM WIND RY.
FOR CD CTC SEATTLE ARTCC AT 253-351-3694.

Instrument Procedures

There are no published instrument procedures at 4OR7.

Some nearby airports with instrument procedures:

KSLE - McNary Field Airport (5 nm SW)
KMMV - Mc Minnville Municipal Airport (15 nm NW)
KUAO - Aurora State Airport (17 nm NE)
S12 - Albany Municipal Airport (21 nm S)
KCVO - Corvallis Municipal Airport (33 nm SW)
 
Loc | Ops | Rwys | IFR | FBO | Links
Com | Nav | Svcs | Stats | Notes
Area around 4OR7 (Lusardi Field Airport)
 
Road maps at: MapQuest Bing Google
 
Aerial photo
WARNING: Photo may not be current or correct
Aerial photo of 4OR7 (Lusardi Field Airport)
Do you have a better or more recent aerial photo of Lusardi Field Airport that you would like to share? If so, please send us your photo.

 
Sectional chart

 
Airport distance calculator
Flying to Lusardi Field Airport? Find the distance to fly.

From to 4OR7

Sunrise and sunset
Times for 15-Dec-2019
 Local
(UTC-8)
 Zulu
(UTC)
Morning civil twilight07:1015:10
Sunrise07:4415:44
Sunset16:3000:30
Evening civil twilight17:0401:04

Current date and time
Zulu (UTC)  15-Dec-2019 11:41:59
Local (UTC-8)  15-Dec-2019 03:41:59
 
METAR
KSLE 
6nm SW 
151056Z AUTO 36004KT 10SM OVC007 05/03 A3010 RMK AO2 CIG 006V010 SLP194 T00500033
KMMV 
15nm NW 
151053Z AUTO 00000KT 9SM OVC002 02/01 A3011 RMK AO2 SLP197 T00170011
KUAO 
18nm NE 
151053Z AUTO 00000KT 1/4SM FG VV002 04/03 A3012 RMK AO2 SLP200 T00390033
TAF
KSLE 
6nm SW 
150538Z 1506/1606 00000KT 6SM BR BKN008 OVC025 TEMPO 1506/1509 3SM BR SCT008 OVC025 FM150900 00000KT 1SM BR OVC006 FM151000 00000KT 1/2SM FG OVC006 FM151900 19005KT 4SM BR SCT006 BKN025 FM152100 20004KT P6SM SCT026 OVC060
KUAO 
18nm NE 
150808Z 1508/1606 00000KT 1/4SM FG VV002 FM151800 20002KT 4SM BR SCT006 BKN015 FM152000 20004KT P6SM OVC050 FM160400 VRB02KT 6SM BR SCT022 BKN050
NOTAMs
Click for the latest NOTAMs
NOTAMs are issued by the DoD/FAA and will open in a separate window not controlled by AirNav.

 

 
 

Would you like to see your business listed on this page?

 If your business provides an interesting product or service to pilots, flight crews, aircraft, or users of the Lusardi Field Airport, you should consider listing it here.  To start the listing process, click on the button below
 
Add a business
 

Other Pages about Lusardi Field Airport

Update a link
 
Copyright © AirNav, LLC. All rights reserved. Privacy Policy  Contact